Regional Weather Roundup
Issued by NWS

Home | Current Version | Previous Version | Graphics & Text | Print | Product List | Glossary Off
Versions: 1 2 3 4 5 6 7 8 9 10 11 12 13 14 15 16 17 18 19 20 21 22 23 24 25 26 27 28 29 30 31 32 33 34 35 36 37 38 39 40 41 42 43 44 45 46 47 48 49 50

000
ASUS43 KFSD 160602
RWRSD

WEATHER ROUNDUP FOR SOUTH DAKOTA
NATIONAL WEATHER SERVICE SIOUX FALLS SD
100 AM CDT TUE SEP 16 2014

NOTE: "FAIR" INDICATES FEW OR NO CLOUDS BELOW 12,000 FEET WITH NO
SIGNIFICANT WEATHER AND/OR OBSTRUCTIONS TO VISIBILITY.


SDZ001>005-009-010-012>017-160700-
NORTHWEST AND NORTH CENTRAL SOUTH DAKOTA

CITY           SKY/WX    TMP DP  RH WIND       PRES   REMARKS
FAITH            N/A     49  38  65 SE17      30.08F
MOBRIDGE       CLEAR     47  42  83 S10       30.12S
$$

SDZ012>016-024>037-041>051-057-063-072>074-160700-
SOUTHWEST AND SOUTH CENTRAL SOUTH DAKOTA

CITY           SKY/WX    TMP DP  RH WIND       PRES   REMARKS
RAPID CTY ARPT CLEAR     49  42  77 SE9       30.08F
PIERRE         CLEAR     49  38  65 SE12      30.14F
CUSTER         CLEAR     45  39  79 NW6       30.19F
ELLSWORTH AFB  CLEAR     55  43  64 S6        30.07F
PHILIP         CLEAR     52  40  63 SE7       30.10F
PINE RIDGE     CLEAR     58  44  60 S22G31    30.11F
WINNER         FAIR      50  39  66 SE12      30.17F
$$

SDZ004>011-016>023-039-040-160700-
NORTHEAST SOUTH DAKOTA

CITY           SKY/WX    TMP DP  RH WIND       PRES   REMARKS
ABERDEEN       CLEAR     37  34  89 S5        30.18F
WATERTOWN      CLEAR     42  37  82 SE3       30.20F
$$

SDZ017-020-022-023-036>040-048>070-160700-
SOUTHEAST SOUTH DAKOTA

CITY           SKY/WX    TMP DP  RH WIND       PRES   REMARKS
SIOUX FALLS    CLEAR     44  42  93 CALM      30.24S
HURON          CLEAR     44  35  70 S5        30.20F
CHAMBERLAIN    CLEAR     43  38  84 SE9       30.19S
MITCHELL       CLEAR     44  39  82 S7        30.22F
YANKTON        CLEAR     46  43  87 CALM      30.25S
$$

ABBREVIATIONS USED IN REMARKS
   TC - TEMPERATURE IN CELSIUS
  WCI - WIND CHILL INDEX
   HX - HEAT INDEX
  VSB - VISIBILITY




USA.gov is the U.S. government's official web portal to all federal, state and local government web resources and services.